NOAA 16 DEB, 41360

Orbit data source: Space-Track

NOAA 16 DEB, 41360 is space debris in SSO originally from a launch on Thu, 21 Sep 2000 UTC launched from the Air Force Western Test Range (AFWTR). Debris objects in space refer to the collection of defunct objects orbiting the Earth. Examples of debris include non-operational satellites, rocket bodies, and fragments generated from explosions, collisions, or faulty payload assembly.

Loading next visibility...
Identifier
41360, 2000-055JD
Orbit
SSO
Country
Flag of USUS
Related business
Manufacturer
Unknown
Mission
Spacecraft
Bus & Motor
Unknown
Mass
Unknown
Launch date (UTC)
2000-09-21 (26 years ago)
Launch vehicle
Unknown
Launch site
Air Force Western Test Range (AFWTR)
Object type
Payload
Rocket body
Debris
Shape & HBR
Unknown shape, 0.1 m
Radar Cross Section
Small (<0.1 m²)

Expand to show TLE details & history
Last TLE update: 22 hours ago

TLE from 22 hours ago
0 NOAA 16 DEB
1 41360U 00055JD  26125.80925118  .00004803  00000-0  17700-2 0  9996
2 41360  98.8952 251.0800 0024997 134.8467 225.4753 14.32846794531169
Epoch: 2026-05-05T19:25Z
TLE epoch observation values (Epoch: 2026-05-05T19:25:19.301Z)
Latitude
Longitude
96.07081°
Altitude
797.733 km
Speed
7.448 km/s
True Right ascension
16h 44m 19s
True Declination
0° 00' 00"
Sunlit
Object was in full shadow at epoch
Visualization orbit readout
Latitude
Unknown
Longitude
Unknown
Altitude
Unknown
Speed
Unknown
Apparent Right ascension
Unknown
Apparent Declination
Unknown
Sunlit
N/A
Visualization observer readout
Local Sidereal Time
01:48:14
Azimuth
Unknown
Elevation
Unknown
Doppler factor
Unknown
Orbital elements
Apogee altitude
797.273 km
Perigee altitude
761.49 km
Semi-major axis
7,157.518 km
Eccentricity
0.0025
Inclination
98.8952°
RAAN
251.08°
Arg. of periapsis
134.8467°
True anomaly
225.27153°
Mean anomaly
225.4753°
Eccentric anomaly
225.37337°
Mean motion
3.58426 °/min
Orbital period
100.44 mins
BSTAR
0.00177
Loading maneuver chart data...
Computing Atmospheric mass density...
Loading historical data...
Loading historical data...
Loading historical data...
Loading historical data...
Loading historical data...
Loading historical data...
Loading historical data...

Documentation

Showing up to 5 results
|